TimeHST,TemperatureF,Dew PointF,Humidity,Sea Level PressureIn,VisibilityMPH,Wind Direction,Wind SpeedMPH,Gust SpeedMPH,PrecipitationIn,Events,Conditions,WindDirDegrees,DateUTC
12:53 AM,77.0,68.0,74,30.06,10.0,ENE,15.0,-,N/A,,Scattered Clouds,60,2011-11-04 10:53:00
1:53 AM,75.9,68.0,76,30.04,10.0,NE,4.6,-,N/A,,Scattered Clouds,50,2011-11-04 11:53:00
2:53 AM,75.9,69.1,79,30.02,10.0,ENE,4.6,-,N/A,,Scattered Clouds,60,2011-11-04 12:53:00
3:53 AM,75.9,69.1,79,30.03,10.0,East,9.2,-,N/A,,Scattered Clouds,80,2011-11-04 13:53:00
4:53 AM,77.0,69.1,76,30.03,10.0,NNE,8.1,-,N/A,,Scattered Clouds,30,2011-11-04 14:53:00
5:53 AM,77.0,69.1,76,30.04,10.0,ENE,11.5,-,N/A,,Scattered Clouds,70,2011-11-04 15:53:00
6:53 AM,77.0,69.1,76,30.06,10.0,ENE,15.0,-,N/A,,Mostly Cloudy,60,2011-11-04 16:53:00
7:53 AM,78.1,68.0,71,30.09,10.0,ENE,15.0,20.7,N/A,,Mostly Cloudy,60,2011-11-04 17:53:00
8:53 AM,79.0,66.0,64,30.08,10.0,NE,13.8,-,N/A,,Scattered Clouds,50,2011-11-04 18:53:00
9:53 AM,82.0,64.0,54,30.08,10.0,NE,16.1,24.2,N/A,,Scattered Clouds,50,2011-11-04 19:53:00
10:53 AM,84.0,61.0,46,30.06,10.0,NE,15.0,24.2,N/A,,Partly Cloudy,50,2011-11-04 20:53:00
11:53 AM,86.0,57.9,38,30.04,10.0,ENE,15.0,23.0,N/A,,Partly Cloudy,60,2011-11-04 21:53:00
12:53 PM,84.0,64.0,51,30.02,10.0,NE,15.0,-,N/A,,Partly Cloudy,40,2011-11-04 22:53:00
1:53 PM,82.9,63.0,51,30.02,10.0,NE,10.4,-,N/A,,Scattered Clouds,40,2011-11-04 23:53:00
2:53 PM,82.0,63.0,52,30.00,10.0,NNE,9.2,-,N/A,,Scattered Clouds,30,2011-11-05 00:53:00
3:53 PM,82.0,63.0,52,30.01,10.0,NE,20.7,27.6,N/A,,Scattered Clouds,40,2011-11-05 01:53:00
4:53 PM,80.1,66.0,62,30.02,10.0,ENE,11.5,20.7,N/A,,Scattered Clouds,60,2011-11-05 02:53:00
5:53 PM,79.0,66.9,66,30.03,10.0,ENE,11.5,-,N/A,,Mostly Cloudy,70,2011-11-05 03:53:00
6:53 PM,78.1,68.0,71,30.04,10.0,East,13.8,21.9,N/A,,Scattered Clouds,80,2011-11-05 04:53:00
7:53 PM,78.1,68.0,71,30.05,10.0,East,12.7,18.4,N/A,,Partly Cloudy,80,2011-11-05 05:53:00
8:53 PM,78.1,68.0,71,30.06,10.0,East,9.2,18.4,N/A,,Partly Cloudy,80,2011-11-05 06:53:00
9:53 PM,78.1,68.0,71,30.06,10.0,East,11.5,-,N/A,,Scattered Clouds,80,2011-11-05 07:53:00
10:53 PM,78.1,66.9,68,30.05,10.0,East,9.2,-,N/A,,Partly Cloudy,80,2011-11-05 08:53:00
11:53 PM,78.1,66.9,68,30.03,10.0,East,13.8,-,N/A,,Partly Cloudy,80,2011-11-05 09:53:00